Flag for Brazil Weather past 2 weeks in Florianópolis, Santa Catarina, Brazil

Now
55 °F

Sunny.


Feels Like: 55 °F
Forecast: 51 / 63 °F
Wind: 2 mph from North

Location: Florianopolis Aeroporto

Current Time: Jul 5, 2015 at 7:17:37 AM

Latest Report: Jul 5, 2015 at 7:00 AM


Visibility: 10 mi

Pressure: 30.24 "Hg

Humidity: 72%

Dew point: 46 °F

Location of FlorianópolisLocation

Historic Weather in Florianópolis — Graph

°F

Florianópolis temperature yesterday

Maximum temperature yesterday: 68 °F (at 12:00 AM)
Minimum temperature yesterday: 57 °F (at 8:00 PM)
Average temperature yesterday: 63 °F

Past Weeks' High & Low Weather Summary

 TemperatureHumidityPressure
High79 °F (Jun 30, 1:00 PM)100% (Jun 26, 7:00 AM)30.54 "Hg (Jun 26, 7:00 AM)
Low52 °F (Jun 20, 6:00 AM)40% (Jul 4, 2:00 PM)29.77 "Hg (Jul 3, 3:00 PM)
Average65 °F78%30.20 "Hg
* Reported Jun 20 6:00 AM — Jul 5 6:00 AM, Florianópolis, Weather by CustomWeather, © 2015

Note: Actual official high and low records may vary slightly from our data, if they occured in-between our weather recording intervals... More about our weather records

Advertising

Florianópolis weather history for previous 24 hours

 ConditionsComfort  
Time TempWeatherWind HumidityBarometerVisibility
6:00 AM
Sun, Jul 5
54 °FClear.6 mph77%30.21 "Hg10 mi
5:00 AM55 °FClear.10 mph67%30.24 "Hg10 mi
4:00 AM55 °FClear.9 mph67%30.24 "Hg10 mi
3:00 AM57 °FClear.10 mph63%30.24 "Hg10 mi
2:00 AM57 °FClear.10 mph59%30.24 "Hg10 mi
1:00 AM55 °FClear.8 mph67%30.21 "Hg10 mi
12:00 AM57 °FClear.9 mph63%30.21 "Hg10 mi
11:00 PM
Sat, Jul 4
57 °FClear.10 mph59%30.24 "Hg10 mi
10:00 PM57 °FClear.9 mph59%30.21 "Hg10 mi
9:00 PM59 °FClear.6 mph59%30.21 "Hg10 mi
8:00 PM57 °FClear.8 mph63%30.18 "Hg10 mi
7:00 PM61 °FClear.12 mph55%30.15 "Hg10 mi
6:00 PM61 °FClear.9 mph55%30.09 "Hg10 mi
5:00 PM63 °FClear.10 mph45%30.07 "Hg10 mi
4:00 PM64 °FSunny.12 mph49%30.04 "Hg10 mi
3:00 PM66 °FSunny.8 mph46%30.04 "Hg10 mi
2:00 PM66 °FSunny.5 mph40%30.04 "Hg10 mi
1:00 PM66 °FSunny.2 mph43%30.04 "Hg10 mi
12:00 PM64 °FSunny.6 mph46%30.04 "Hg10 mi
11:00 AM64 °FSunny.6 mph49%30.04 "Hg10 mi
10:00 AM63 °FSunny.7 mph52%30.04 "Hg10 mi
9:00 AM61 °FPassing clouds.10 mph59%30.01 "HgN/A
8:00 AM61 °FScattered clouds.7 mph72%29.95 "HgN/A
7:00 AM63 °FPartly sunny.3 mph77%29.92 "HgN/A
Weather by CustomWeather, © 2015

See weather overviewHow to use our weather pages